Regional Weather Roundup
Issued by NWS Newport/Morehead, NC

Current Version | Previous Version | Text Only | Print | Product List | Glossary Off
Versions: 1 2 3 4 5 6 7 8 9 10 11 12 13 14 15 16 17 18 19 20 21 22 23 24 25 26 27 28 29 30 31 32 33 34 35 36 37 38 39 40 41 42 43 44 45 46 47 48 49 50
808 ASUS42 KMHX 021213 RWRMHX WEATHER ROUNDUP FOR EASTERN NORTH CAROLINA NATIONAL WEATHER SERVICE NEWPORT/MOREHEAD CITY NC 700 AM EST FRI DEC 02 2016 NOTE: "FAIR" INDICATES FEW OR NO CLOUDS BELOW 12,000 FEET WITH NO SIGNIFICANT WEATHER AND/OR OBSTRUCTIONS TO VISIBILITY NCZ015>017-031-032-045>047-102-103-021300- NORTH COAST CITY SKY/WX TMP DP RH WIND PRES REMARKS EDENTON CLEAR 39 36 86 CALM 30.09R ELIZABETH CITY CLEAR 36 33 89 W6 30.08R KITTY HAWK PTSUNNY 48 40 74 CALM 30.04R MANTEO PTCLDY 47 39 71 N9 30.06R $$ NCZ045>047-081-094-103-104-021300- CENTRAL COAST CITY SKY/WX TMP DP RH WIND PRES REMARKS FRISCO CLEAR 51 42 71 VRB7 30.04R $$ NCZ095-097-098-100-101-021300- SOUTHERN COAST CITY SKY/WX TMP DP RH WIND PRES REMARKS BEAUFORT CLEAR 44 38 79 N8 30.08R CEDAR ISLAND NOT AVBL JACKSONVILLE CLEAR 42 34 73 N7 30.09R PINEY ISLAND SUNNY N/A N/A N/A N10 30.07R WILMINGTON CLEAR 41 34 76 N5 30.10R $$ NCZ011>013-027>030-043-044-078>080-089-090>093-098-021300- COASTAL PLAIN CITY SKY/WX TMP DP RH WIND PRES REMARKS AHOSKIE CLEAR 32 31 96 CALM 30.10R CLINTON CLEAR 37 35 93 CALM 30.12R ELIZABETHTOWN CLEAR 38 34 84 CALM 30.11R GOLDSBORO PTCLDY 39 34 83 CALM 30.10R GREENVILLE CLEAR 36 34 93 CALM 30.12R HAVELOCK CLEAR 45 36 70 N9 30.09R KENANSVILLE CLEAR 34 32 93 CALM 30.11R KINSTON CLEAR 34 32 93 CALM 30.12R NEW BERN CLEAR 42 33 70 N8 30.10R RICHLANDS CLEAR 38 33 82 NW5 30.11R ROCKY MOUNT CLEAR 33 33 100 CALM 30.11R WASHINGTON CLEAR 37 32 83 CALM 30.09R WHITEVILLE CLEAR 42 35 76 CALM 30.11R $$ AMZ130-135-150-152-154-156-158-170-250-252-270-ANZ085-086-088-633-658-670-021300- MARINE OBSERVATIONS STATION/POSITION TIME TEMP WIND PRES WAVE SWELL AIR SEA DIR/SP/G HT/PER HT/PER (UTC) (F) (DEG/KT/KT) (MB) (FT/S) (FT/S) CHESAPEAKE LIGHT NOT AVBL 64 E VA BEACH 1150 51 59 350/ 16/ 19 1016.7 5/ 6 2/ 8 DUCK 1148 50 57 10/ 10/ 13 1017.2 2 E DUCK NOT AVBL OREGON INLET 1136 50 60 360/ 8/ 13 1017.3 13E OREGON INLT 1130 63 N/A 4/ 5 2/ 8 HATTERAS CG 1148 53 62 360/ 15/ 18 1017.0 DIAMOND BUOY 1150 58 76 10/ 14/ 19 1016.7 3/ 8 2/ 8 CAPE LOOKOUT 1100 47 350/ 12/ 14 1017.0 BEAUFORT LAB 1148 46 59 360/ 10/ 14 1017.3 30 SE NEW RVR IN 1108 54 73 20/ 16/ 21 1017.2 30 SE NEW RVR IN NOT AVBL 27 SE WRIGHTSVLE 1108 54 69 30/ 16/ 23 1017.1 5 SE WRIGHTSVLE 1108 48 63 20/ 17/ 31 1017.4 225 S CAPE HAT 1150 72 74 310/ 14/ 17 1015.6 6/ 7 3/ 7 41 SE CHARLESTON 1150 58 74 330/ 12/ 14 1018.6 4/ 5 2/ 5 $$

USA.gov is the U.S. government's official web portal to all federal, state and local government web resources and services.